International Skating Union - Official Site

ISU World Cup Speed Skating 2017-2018
November 17-19, 2017

Draw | Lap Times | Index | World Cup

Referee: Dan  IMMERFALL  (USA)
Starter: Roland  STEENBECK  (GER)
StartTime: EndTime: Air Temp: Ice Temp: Humidity:
14:57 16:38 15.6℃ -6.3℃ 41%
Result 10000m Men Division A
Rankings as of Nov 19 2017 4:55PM
Rank: No.: Name: Nation: Time: Behind: Points:
1 82 Sven  Kramer NED NED 12:50.97400m - 34.75 - (34.7)
800m - 1:05.35 - (30.6)
1200m - 1:36.60 - (31.2)
1600m - 2:07.30 - (30.7)
2000m - 2:38.11 - (30.8)
2400m - 3:08.72 - (30.6)
2800m - 3:39.68 - (30.9)
3200m - 4:10.58 - (30.9)
3600m - 4:41.92 - (31.3)
4000m - 5:12.79 - (30.8)
4400m - 5:43.87 - (31.0)
4800m - 6:14.75 - (30.8)
5200m - 6:45.94 - (31.1)
5600m - 7:16.74 - (30.8)
6000m - 7:47.71 - (30.9)
6400m - 8:18.43 - (30.7)
6800m - 8:49.13 - (30.7)
7200m - 9:19.49 - (30.3)
7600m - 9:50.38 - (30.8)
8000m - 10:20.41 - (30.0)
8400m - 10:50.76 - (30.3)
8800m - 11:20.71 - (29.9)
9200m - 11:51.09 - (30.3)
9600m - 12:21.40 - (30.3)
10000m - 12:50.97 - (29.5)
100
2 11 Ted-Jan  Bloemen CAN CAN 12:52.64400m - 33.56 - (33.5)
800m - 1:03.92 - (30.3)
1200m - 1:34.71 - (30.7)
1600m - 2:05.65 - (30.9)
2000m - 2:36.35 - (30.7)
2400m - 3:07.25 - (30.9)
2800m - 3:38.25 - (31.0)
3200m - 4:09.22 - (30.9)
3600m - 4:40.13 - (30.9)
4000m - 5:11.01 - (30.8)
4400m - 5:41.91 - (30.9)
4800m - 6:12.88 - (30.9)
5200m - 6:43.91 - (31.0)
5600m - 7:14.90 - (30.9)
6000m - 7:45.77 - (30.8)
6400m - 8:16.68 - (30.9)
6800m - 8:47.72 - (31.0)
7200m - 9:18.70 - (30.9)
7600m - 9:49.48 - (30.7)
8000m - 10:20.16 - (30.6)
8400m - 10:50.81 - (30.6)
8800m - 11:21.17 - (30.3)
9200m - 11:51.74 - (30.5)
9600m - 12:21.98 - (30.2)
10000m - 12:52.64 - (30.6)
1.67 80
3 81 Erik-Jan  Kooiman NED NED 12:57.13400m - 35.60 - (35.6)
800m - 1:06.26 - (30.6)
1200m - 1:37.28 - (31.0)
1600m - 2:08.57 - (31.2)
2000m - 2:39.60 - (31.0)
2400m - 3:10.64 - (31.0)
2800m - 3:41.57 - (30.9)
3200m - 4:12.66 - (31.0)
3600m - 4:43.73 - (31.0)
4000m - 5:14.66 - (30.9)
4400m - 5:45.45 - (30.7)
4800m - 6:16.45 - (31.0)
5200m - 6:47.37 - (30.9)
5600m - 7:18.14 - (30.7)
6000m - 7:48.94 - (30.8)
6400m - 8:19.51 - (30.5)
6800m - 8:50.10 - (30.5)
7200m - 9:20.74 - (30.6)
7600m - 9:51.34 - (30.6)
8000m - 10:22.13 - (30.7)
8400m - 10:52.93 - (30.8)
8800m - 11:24.03 - (31.1)
9200m - 11:55.16 - (31.1)
9600m - 12:26.30 - (31.1)
10000m - 12:57.13 - (30.8)
6.16 70
4 77 Jorrit  Bergsma NED NED 13:01.24400m - 34.78 - (34.7)
800m - 1:05.91 - (31.1)
1200m - 1:37.16 - (31.2)
1600m - 2:08.45 - (31.2)
2000m - 2:39.58 - (31.1)
2400m - 3:10.59 - (31.0)
2800m - 3:41.57 - (30.9)
3200m - 4:12.61 - (31.0)
3600m - 4:43.66 - (31.0)
4000m - 5:14.64 - (30.9)
4400m - 5:45.53 - (30.8)
4800m - 6:16.54 - (31.0)
5200m - 6:47.42 - (30.8)
5600m - 7:18.39 - (30.9)
6000m - 7:49.27 - (30.8)
6400m - 8:20.18 - (30.9)
6800m - 8:50.98 - (30.8)
7200m - 9:21.78 - (30.8)
7600m - 9:52.43 - (30.6)
8000m - 10:23.15 - (30.7)
8400m - 10:53.90 - (30.7)
8800m - 11:24.89 - (30.9)
9200m - 11:56.21 - (31.3)
9600m - 12:28.40 - (32.1)
10000m - 13:01.24 - (32.8)
10.27 60
5 47 Nicola  Tumolero ITA ITA 13:02.11400m - 34.33 - (34.3)
800m - 1:06.10 - (31.7)
1200m - 1:38.08 - (31.9)
1600m - 2:09.00 - (30.9)
2000m - 2:40.45 - (31.4)
2400m - 3:11.71 - (31.2)
2800m - 3:42.66 - (30.9)
3200m - 4:13.63 - (30.9)
3600m - 4:44.63 - (31.0)
4000m - 5:15.35 - (30.7)
4400m - 5:46.61 - (31.2)
4800m - 6:17.22 - (30.6)
5200m - 6:48.54 - (31.3)
5600m - 7:19.25 - (30.7)
6000m - 7:50.38 - (31.1)
6400m - 8:21.26 - (30.8)
6800m - 8:52.44 - (31.1)
7200m - 9:23.27 - (30.8)
7600m - 9:54.23 - (30.9)
8000m - 10:25.23 - (31.0)
8400m - 10:56.42 - (31.1)
8800m - 11:27.72 - (31.3)
9200m - 11:59.35 - (31.6)
9600m - 12:30.74 - (31.3)
10000m - 13:02.11 - (31.3)
11.14 50
6 104 Sverre Lunde  Pedersen NOR NOR 13:02.42400m - 35.16 - (35.1)
800m - 1:06.29 - (31.1)
1200m - 1:37.79 - (31.5)
1600m - 2:09.01 - (31.2)
2000m - 2:40.40 - (31.3)
2400m - 3:11.77 - (31.3)
2800m - 3:43.13 - (31.3)
3200m - 4:14.49 - (31.3)
3600m - 4:45.90 - (31.4)
4000m - 5:17.08 - (31.1)
4400m - 5:48.35 - (31.2)
4800m - 6:19.54 - (31.1)
5200m - 6:50.83 - (31.2)
5600m - 7:21.98 - (31.1)
6000m - 7:53.24 - (31.2)
6400m - 8:24.39 - (31.1)
6800m - 8:55.55 - (31.1)
7200m - 9:26.54 - (30.9)
7600m - 9:57.64 - (31.1)
8000m - 10:28.55 - (30.9)
8400m - 10:59.42 - (30.8)
8800m - 11:30.12 - (30.7)
9200m - 12:00.81 - (30.6)
9600m - 12:31.41 - (30.6)
10000m - 13:02.42 - (31.0)
11.45 45
7 35 Patrick  Beckert GER GER 13:04.97400m - 36.04 - (36.0)
800m - 1:06.98 - (30.9)
1200m - 1:37.86 - (30.8)
1600m - 2:08.96 - (31.1)
2000m - 2:40.16 - (31.2)
2400m - 3:11.36 - (31.2)
2800m - 3:42.70 - (31.3)
3200m - 4:14.03 - (31.3)
3600m - 4:45.54 - (31.5)
4000m - 5:17.06 - (31.5)
4400m - 5:48.53 - (31.4)
4800m - 6:20.05 - (31.5)
5200m - 6:51.54 - (31.4)
5600m - 7:23.01 - (31.4)
6000m - 7:54.29 - (31.2)
6400m - 8:25.61 - (31.3)
6800m - 8:56.98 - (31.3)
7200m - 9:28.20 - (31.2)
7600m - 9:59.31 - (31.1)
8000m - 10:30.60 - (31.2)
8400m - 11:01.75 - (31.1)
8800m - 11:32.94 - (31.1)
9200m - 12:03.71 - (30.7)
9600m - 12:34.35 - (30.6)
10000m - 13:04.97 - (30.6)
14.00 40
8 108 Peter  Michael NZL NZL 13:07.20400m - 34.80 - (34.8)
800m - 1:05.47 - (30.6)
1200m - 1:37.06 - (31.5)
1600m - 2:08.44 - (31.3)
2000m - 2:39.50 - (31.0)
2400m - 3:10.53 - (31.0)
2800m - 3:42.06 - (31.5)
3200m - 4:13.70 - (53.7)
3600m - 4:45.25 - (31.5)
4000m - 5:17.14 - (31.8)
4400m - 5:48.87 - (31.7)
4800m - 6:19.88 - (31.0)
5200m - 6:50.79 - (30.9)
5600m - 7:21.95 - (31.1)
6000m - 7:53.18 - (31.2)
6400m - 8:24.90 - (31.7)
6800m - 8:56.48 - (31.5)
7200m - 9:28.65 - (32.1)
7600m - 10:00.86 - (32.2)
8000m - 10:32.59 - (31.7)
8400m - 11:04.33 - (31.7)
8800m - 11:35.46 - (31.1)
9200m - 12:06.29 - (30.8)
9600m - 12:37.11 - (30.8)
10000m - 13:07.20 - (30.0)
16.23 35
9 37 Moritz  Geisreiter GER GER 13:08.87400m - 35.07 - (35.0)
800m - 1:06.22 - (31.1)
1200m - 1:38.35 - (32.1)
1600m - 2:09.83 - (31.4)
2000m - 2:41.11 - (31.2)
2400m - 3:12.04 - (30.9)
2800m - 3:42.86 - (30.8)
3200m - 4:14.22 - (31.3)
3600m - 4:45.62 - (31.4)
4000m - 5:16.93 - (31.3)
4400m - 5:48.06 - (31.1)
4800m - 6:19.53 - (31.4)
5200m - 6:50.95 - (31.4)
5600m - 7:22.51 - (31.5)
6000m - 7:53.73 - (31.2)
6400m - 8:24.78 - (31.0)
6800m - 8:55.93 - (31.1)
7200m - 9:27.27 - (31.3)
7600m - 9:58.75 - (31.4)
8000m - 10:30.23 - (31.4)
8400m - 11:01.81 - (31.5)
8800m - 11:33.56 - (31.7)
9200m - 12:05.49 - (31.9)
9600m - 12:37.33 - (31.8)
10000m - 13:08.87 - (31.5)
17.90 30
10 10 Jordan  Belchos CAN CAN 13:10.30400m - 36.30 - (36.3)
800m - 1:06.88 - (30.5)
1200m - 1:38.11 - (31.2)
1600m - 2:09.27 - (31.1)
2000m - 2:40.37 - (31.1)
2400m - 3:11.81 - (31.4)
2800m - 3:43.04 - (31.2)
3200m - 4:14.55 - (31.5)
3600m - 4:46.28 - (31.7)
4000m - 5:17.56 - (31.2)
4400m - 5:49.27 - (31.7)
4800m - 6:21.21 - (31.9)
5200m - 6:52.67 - (31.4)
5600m - 7:24.40 - (31.7)
6000m - 7:56.02 - (31.6)
6400m - 8:27.44 - (31.4)
6800m - 8:59.00 - (31.5)
7200m - 9:30.41 - (31.4)
7600m - 10:01.92 - (31.5)
8000m - 10:33.49 - (31.5)
8400m - 11:04.80 - (31.3)
8800m - 11:36.24 - (31.4)
9200m - 12:07.92 - (31.6)
9600m - 12:39.32 - (31.4)
10000m - 13:10.30 - (30.9)
19.33 25
11 34 Alexis  Contin FRA FRA 13:14.70400m - 34.97 - (34.9)
800m - 1:05.40 - (30.4)
1200m - 1:36.59 - (31.1)
1600m - 2:08.23 - (31.6)
2000m - 2:39.30 - (31.0)
2400m - 3:10.47 - (31.1)
2800m - 3:41.41 - (30.9)
3200m - 4:12.97 - (52.9)
3600m - 4:44.51 - (31.5)
4000m - 5:16.32 - (31.8)
4400m - 5:48.07 - (31.7)
4800m - 6:19.49 - (31.4)
5200m - 6:50.51 - (31.0)
5600m - 7:21.72 - (31.2)
6000m - 7:52.84 - (31.1)
6400m - 8:24.41 - (31.5)
6800m - 8:56.14 - (31.7)
7200m - 9:27.84 - (31.7)
7600m - 9:59.61 - (31.7)
8000m - 10:31.37 - (31.7)
8400m - 11:03.70 - (32.3)
8800m - 11:36.25 - (32.5)
9200m - 12:08.47 - (32.2)
9600m - 12:41.15 - (32.6)
10000m - 13:14.70 - (33.5)
23.73 21
12 96 Håvard  Bøkko NOR NOR 13:18.48400m - 35.25 - (35.2)
800m - 1:06.37 - (31.1)
1200m - 1:38.17 - (31.8)
1600m - 2:10.23 - (32.0)
2000m - 2:41.96 - (31.7)
2400m - 3:13.50 - (31.5)
2800m - 3:45.28 - (31.7)
3200m - 4:16.99 - (31.7)
3600m - 4:48.78 - (31.7)
4000m - 5:20.53 - (31.7)
4400m - 5:52.23 - (31.7)
4800m - 6:23.69 - (31.4)
5200m - 6:55.24 - (31.5)
5600m - 7:26.82 - (31.5)
6000m - 7:58.37 - (31.5)
6400m - 8:29.98 - (31.6)
6800m - 9:01.68 - (31.7)
7200m - 9:33.52 - (31.8)
7600m - 10:05.47 - (31.9)
8000m - 10:37.29 - (31.8)
8400m - 11:09.12 - (31.8)
8800m - 11:41.14 - (32.0)
9200m - 12:13.53 - (32.3)
9600m - 12:46.08 - (32.5)
10000m - 13:18.48 - (32.4)
27.51 18